Location: Brad
(46.1333°N, 22.7833°E)
Time: 03:59:02
(UTC+00:00)

Cosmos 2228 - Pass Details

Date: 03 February 2023
Orbit: 585 x 612 km, 82.5° (Epoch: 29 March)

Event Time Altitude Azimuth Distance (km) Brightness Sun altitude
Rises 16:51:47 0° 345° (NNW) 2,825 6.5 -13.3°
Reaches altitude 10° 16:54:03 10° 340° (NNW) 1,919 5.7 -13.7°
Maximum altitude 16:58:06 47° 267° (W) 787 4.1 -14.4°
Drops below altitude 10° 17:02:07 10° 193° (SSW) 1,905 5.8 -15.1°
Sets 17:04:22 0° 188° (S) 2,802 6.6 -15.5°
